Location: Winnipauk Village
(41.1295°N, 73.4171°W)
Time: 01:00:33
(UTC+00:00)

X-37B - Visible Passes

Search period start: 01 August 2021 00:00
Search period end: 11 August 2021 00:00
Orbit: 383 x 392 km, 45.0° (Epoch: 01 July)

Date Brightness Start Highest point End Pass type
(mag) Time Alt. Az. Time Alt. Az. Time Alt. Az.
01 Aug 1.8 08:08:05 27° SSE 08:08:33 28° SSE 08:11:22 10° E visible
02 Aug 3.6 07:12:16 11° ESE 07:12:16 11° ESE 07:12:26 10° ESE visible
02 Aug 0.5 08:44:32 19° WSW 08:46:40 87° SSE 08:49:52 10° ENE visible
03 Aug 1.2 07:48:41 48° SE 07:48:41 48° SE 07:51:27 10° ENE visible
03 Aug 1.4 09:21:55 10° W 09:25:01 46° N 09:28:08 10° ENE visible
04 Aug 3.8 06:52:48 10° E 06:52:48 10° E 06:52:53 10° E visible
04 Aug 0.9 08:25:04 27° W 08:26:34 62° NNW 08:29:45 10° ENE visible
05 Aug 1.8 07:29:11 40° ENE 07:29:11 40° ENE 07:31:23 10° ENE visible
05 Aug 1.8 09:01:59 10° WNW 09:05:01 39° N 09:08:04 10° ENE visible
06 Aug 1.4 08:05:35 33° WNW 08:06:33 46° N 08:09:39 10° ENE visible
07 Aug 2.8 07:09:44 25° ENE 07:09:44 25° ENE 07:11:16 10° ENE visible
07 Aug 1.9 08:42:01 10° WNW 08:45:02 38° N 08:48:04 10° ENE visible
08 Aug 1.7 07:46:13 38° NNW 07:46:33 39° N 07:49:35 10° ENE visible
08 Aug 1.3 09:20:22 10° WNW 09:23:31 54° NNE 09:26:40 10° E visible
09 Aug 3.6 06:50:31 15° ENE 06:50:31 15° ENE 06:51:10 10° ENE visible
09 Aug 1.7 08:22:48 16° WNW 08:25:03 43° N 08:28:07 10° E visible
10 Aug 2.3 07:27:12 34° NNE 07:27:12 34° NNE 07:29:36 10° ENE visible
10 Aug 0.7 09:00:15 10° WNW 09:03:27 79° NNE 09:06:39 10° ESE visible
